GFSMA_con_lsi_000.txt.gz
Lid_Strength_Index
1 1 1 1 0 -0 0 -0 -0 -0 -0 -0 -0 -0 -0 -0 -1 -1 -1 -1 -1 -2 -2 -2 -2 -2 -2 -2 -2 -2 -2 -2 -1 -2 -2 -2 -2 -2 -2 -1 -0 0 0
2 1 1 1 1 0 -0 0 -0 0 0 -0 -0 -0 0 -1 -1 -1 -1 -1 -2 -1 -2 -2 -2 -2 -2 -2 -2 -2 -2 -2 -2 -2 -2 -2 -2 -2 -1 -0 1 1 1
1 1 1 1 1 0 -0 0 -0 -0 0 -0 0 0 -0 -0 -0 -1 -1 -1 -1 -1 -1 -2 -2 -2 -2 -2 -2 -2 -2 -2 -2 -2 -2 -2 -1 -0 -0 0 1 1 1
1 1 1 1 1 0 0 0 0 1 1 1 1 0 0 -0 -0 -0 -1 -0 -0 -1 -1 -2 -2 -2 -2 -2 -2 -2 -2 -2 -2 -2 -1 -0 -0 1 1 1 1 1 1
0 1 1 0 -0 0 0 0 1 1 1 1 1 1 0 0 0 -0 -0 -0 -0 -0 -0 -1 -1 -1 -2 -2 -2 -2 -2 -2 -2 -1 -0 -0 1 1 1 1 1 1 1
0 0 1 0 -0 0 0 0 1 1 1 1 1 1 1 1 0 0 0 -0 -0 -1 -1 -1 -1 -1 -1 -2 -2 -2 -2 -2 -2 -1 0 0 1 1 1 1 1 1 2
0 -0 0 0 -0 1 1 0 1 1 2 1 2 2 1 1 1 1 1 0 -0 -0 -0 0 -1 -1 -1 -1 -2 -2 -2 -2 -1 0 0 0 1 1 1 1 1 2 2
-0 0 0 0 0 1 1 1 1 2 2 1 3 3 5 3 2 1 1 1 0 -0 0 -0 -0 -1 -1 -1 -1 -2 -2 -2 -0 1 1 1 1 1 2 2 2 2 2
-0 0 0 0 0 0 1 1 1 1 3 1 1 3 6 6 4 3 2 2 1 1 1 0 -0 -1 -0 -1 -1 -2 -2 -1 -0 1 1 1 1 2 2 1 1 1 1
0 0 0 0 1 0 1 1 1 1 1 3 2 1 1 2 5 6 4 4 3 2 2 1 1 0 -1 -1 -1 -2 -2 -2 -0 0 1 1 0 1 1 1 1 -0 -1
-0 -0 0 -0 0 0 0 1 1 1 1 2 2 2 2 3 3 4 6 6 5 4 2 1 2 2 2 1 -1 -1 -1 -1 -1 -1 -1 -0 0 -1 -1 -1 -0 -1 -1
0 0 0 0 0 0 0 0 1 1 1 1 1 1 2 3 3 5 5 7 6 6 5 3 2 2 2 1 -1 -1 1 1 2 1 1 -1 -1 -1 -0 -0 -0 0 0
1 1 0 1 1 0 0 0 1 1 1 1 2 2 2 3 3 3 5 8 7 8 7 5 3 2 4 3 -0 -0 0 1 2 2 1 0 -0 -1 -0 1 1 1 1
2 1 1 0 1 0 0 0 0 1 1 2 2 2 2 2 2 3 5 8 10 9 8 6 5 4 4 4 3 1 -0 -0 1 1 1 1 1 1 0 1 1 1 3
1 1 1 2 1 1 0 1 1 1 0 1 1 1 2 2 2 4 5 6 7 8 8 6 6 5 4 3 2 -0 1 -0 0 2 2 2 2 2 2 2 1 2 4
3 3 3 4 4 3 2 2 2 1 2 2 1 2 3 3 3 4 5 5 5 7 9 8 6 5 2 0 -1 -0 1 0 1 2 2 3 3 3 2 2 2 3 4
3 4 3 3 3 3 2 3 3 2 3 3 3 3 3 3 4 6 5 6 6 6 6 5 3 2 1 1 1 1 1 1 2 2 2 3 4 4 3 3 4 4 5
3 3 3 3 3 3 3 3 3 3 3 3 4 4 4 5 5 5 3 3 3 3 3 3 3 5 4 4 3 2 4 4 4 3 3 4 4 5 4 4 5 5 6
3 3 3 3 4 4 4 5 5 4 4 3 3 3 3 3 3 3 2 2 2 2 1 3 5 6 6 6 5 5 5 4 4 3 4 4 5 5 5 5 5 7 7
4 4 3 4 4 5 5 4 4 4 4 4 3 2 2 2 2 2 2 2 2 2 3 5 6 7 6 7 6 6 6 6 6 6 6 6 6 6 6 6 6 7 8
4 4 4 5 5 4 4 4 4 5 5 5 5 4 3 3 3 3 3 2 2 3 4 5 7 7 7 7 6 7 7 7 7 7 8 9 9 8 8 7 6 6 8
4 3 4 3 3 4 7 6 5 5 5 5 5 6 5 5 5 6 5 6 5 4 5 6 7 6 7 7 7 7 8 8 9 7 7 9 9 10 9 8 7 7 7
5 4 4 4 4 5 8 8 8 6 6 7 7 7 7 7 6 6 6 7 7 7 6 4 5 6 6 7 7 8 8 8 8 8 8 9 9 10 9 9 8 8 8
5 5 5 5 4 5 9 9 9 8 8 9 8 8 7 7 7 6 6 7 7 7 7 6 4 4 5 6 6 7 8 8 8 9 9 9 10 10 9 8 9 8 9
6 6 6 6 5 5 9 10 9 9 9 9 9 9 9 8 10 10 7 8 8 9 10 10 10 10 11 11 9 8 9 9 9 9 10 9 10 10 10 9 8 9 9
6 6 6 6 6 5 9 10 9 8 8 8 7 7 9 10 11 11 8 8 8 8 10 10 10 10 10 9 10 7 8 9 10 10 9 10 11 10 11 9 8 8 8

GFSMA_con_lsi_006.txt.gz
Lid_Strength_Index
-1 -1 -1 -1 -1 -1 -1 -1 -1 -1 -1 -1 -1 -1 -1 -1 -2 -2 -2 -2 -1 -1 -2 -2 -2 -2 -2 -2 -2 -2 -2 -2 -2 -2 -2 -2 -2 -2 -1 -2 -1 -1 -1
-1 -1 -1 -1 -1 -1 -1 -1 -1 -1 -1 -1 -1 -1 -1 -1 -1 -1 -2 -2 -1 -1 -2 -2 -2 -2 -2 -2 -2 -2 -2 -1 -1 -2 -2 -2 -2 -1 -1 -1 -1 -1 -2
-2 -1 -1 -1 -1 -2 -2 -1 -1 -1 -1 -1 -1 -1 -1 -1 -1 -1 -2 -1 -1 -1 -1 -1 -2 -2 -2 -2 -2 -2 -1 -2 -2 -2 -2 -2 -2 -1 -1 -2 -1 -1 -0
-2 -1 -1 -1 -2 -1 -1 -1 -0 -0 -0 -0 -0 -0 -1 -1 -1 -1 -2 -2 -0 -0 -1 -1 -2 -2 -2 -2 -2 -2 -2 -2 -2 -2 -2 -1 -1 -1 -2 -1 -0 0 0
-2 -1 -1 -1 -2 -1 -1 -1 -0 -0 0 0 0 -0 -1 -1 -1 -1 -0 -0 -1 -0 -0 -1 -1 -1 -2 -2 -2 -2 -2 -2 -2 -2 -1 -1 -1 -1 -1 -0 0 0 0
-1 -1 -1 -1 -1 -1 -1 -0 -0 -0 -0 0 0 0 -0 -0 -1 -0 -0 -1 -1 -1 -1 -0 -1 -2 -1 -2 -2 -2 -2 -2 -2 -1 -1 -1 -1 -1 0 1 1 1 1
-1 -1 -1 -1 -1 -1 -0 -1 -0 0 0 -0 1 2 1 -0 0 -0 -0 -1 -1 -0 -0 -0 -1 -1 -1 -1 -1 -2 -2 -1 -1 -1 -1 -1 -1 0 1 1 1 1 1
-1 -1 -1 -1 -1 0 -1 -0 -0 1 1 0 3 3 5 3 1 0 0 0 -0 -0 0 -0 -1 -1 -1 -1 -2 -2 -2 -1 -1 -0 -0 -1 -0 0 1 1 1 1 1
-1 -1 -1 -1 -1 -1 0 -0 -0 0 2 1 1 3 6 6 4 1 1 1 0 0 0 -0 -1 -1 -1 -1 -2 -2 -1 -1 -0 -0 0 0 0 1 1 1 1 1 1
-0 -0 -1 -1 -1 -0 -0 -0 -1 -0 1 2 1 1 1 2 5 6 2 1 1 1 0 -0 -0 -1 -1 -1 -1 -2 -1 -1 -0 0 0 1 1 1 1 1 1 -1 -1
-1 -1 -1 -1 -1 -1 -0 -0 -0 -0 0 2 2 2 2 2 2 4 6 4 3 1 0 -0 -0 -0 -1 -1 -1 -1 -1 -1 -0 -1 -1 -0 0 1 0 -1 -1 -1 -1
-0 -0 -0 -0 -1 -1 -0 -1 -1 -0 -0 0 1 1 2 3 3 4 4 4 5 4 1 -0 -0 -1 -2 -2 -2 -0 -0 0 1 0 -0 -1 -0 -1 -1 -1 -1 -1 -1
0 0 -0 -0 -0 -1 -0 -1 -0 -0 0 1 1 1 1 2 1 2 4 4 5 5 3 1 -1 -1 -1 -2 -2 -1 -0 1 1 1 1 -0 -1 -1 -2 -1 -0 -0 -0
1 -0 0 -1 -1 -1 -0 -1 -0 0 0 0 1 1 1 1 1 2 3 5 7 5 3 2 0 0 -2 -2 -1 -0 -0 2 2 1 1 -0 -1 -1 -1 -1 -1 -0 2
0 -0 -0 0 -0 -0 -0 -1 -0 0 0 0 1 1 1 2 1 3 3 3 4 5 4 2 2 -0 -1 -1 -0 -0 0 0 0 1 1 1 0 0 0 -0 1 2 2
-0 -0 -0 -0 -0 -1 -1 -0 0 -0 0 0 0 0 1 1 2 3 4 4 3 2 4 2 2 0 -1 1 1 -1 -1 0 1 1 1 2 2 1 1 2 2 3 4
-1 0 0 0 0 -0 -0 -0 -0 1 1 1 0 1 1 1 2 2 3 3 1 2 3 2 1 -0 0 1 -0 -2 -2 -1 0 2 1 2 2 2 2 3 3 4 4
-0 -0 -0 0 1 1 -0 0 0 0 1 1 1 1 1 1 0 0 0 0 -0 -0 1 2 1 1 -0 -2 -2 -2 -2 -2 -2 2 2 3 3 3 3 4 4 4 5
-0 -0 -0 0 1 1 0 0 0 0 0 0 0 0 1 0 0 0 -0 0 1 1 1 2 1 -0 -0 -1 -1 -1 -1 -2 -1 3 4 4 4 3 4 5 5 5 6
-0 -0 -0 -0 -0 0 0 -0 -0 0 0 -0 -0 -0 -0 -0 0 -0 -0 -0 0 1 -0 1 1 1 0 -1 -1 0 1 -0 1 3 4 5 4 4 4 5 5 6 7
-0 0 -0 -0 -1 -0 0 -0 -0 -0 -0 0 -0 -0 -1 1 4 2 -0 -1 -0 0 1 1 1 1 1 1 1 0 1 0 -0 0 2 3 4 4 5 5 5 6 7
-1 0 -0 -0 -0 -0 7 5 1 -0 -0 0 0 -0 -1 1 3 4 4 4 0 -1 -0 1 1 1 0 0 0 0 1 1 2 -0 1 2 2 4 4 4 6 7 8
-1 -1 -1 -1 -0 -1 7 6 4 -1 -0 -0 -0 -0 -0 0 -0 -1 5 5 5 5 4 -0 0 0 0 -0 -1 0 0 1 1 -0 1 2 2 4 4 5 7 7 8
-0 -0 -0 -0 -1 0 8 7 4 -1 -1 -1 -1 -1 -1 -0 -0 -1 -0 -0 -0 -1 -1 -1 -1 -1 -1 -1 -1 -1 -0 -0 -0 -0 0 4 2 3 3 4 7 8 8
0 -0 -0 -0 -0 -0 8 8 4 -1 -0 -0 -1 -0 -1 -0 8 7 1 0 -0 -0 9 8 8 9 10 9 5 -1 1 2 2 2 1 3 4 4 4 4 4 8 8
-0 -0 -0 -1 2 -0 9 9 5 1 0 2 1 2 8 4 10 9 0 0 1 0 1 2 2 6 8 5 10 3 2 4 4 4 2 4 5 5 6 4 4 4 7

GFSMA_con_lsi_009.txt.gz
Lid_Strength_Index
-1 -1 -1 -1 -1 -1 -1 -1 -1 -0 -1 -1 -1 -0 -1 -1 -1 -2 -2 -1 -1 -1 -1 -1 -1 -1 -1 -1 -1 -2 -2 -2 -1 -2 -2 -2 -2 -2 -1 -1 -1 -2 -2
-1 -0 -1 -1 -1 -1 -1 -1 -0 -0 -0 -0 -0 -0 -1 -1 -1 -1 -2 -2 -1 -1 -1 -1 -1 -1 -1 -2 -2 -2 -1 -1 -2 -2 -2 -2 -2 -1 -1 -1 -2 -1 -2
-1 -1 -1 -1 -1 -2 -1 -1 0 -1 -0 -0 -0 -0 -1 -1 -1 -1 -2 -1 -1 -1 -1 -2 -1 -2 -2 -2 -2 -2 -2 -2 -2 -2 -2 -2 -2 -2 -2 -2 -1 -1 -1
-2 -1 -1 -1 -1 -1 -0 0 -0 0 0 1 1 0 -0 -1 -1 -1 -1 -1 -1 -2 -1 -1 -1 -1 -2 -2 -2 -2 -1 -2 -2 -2 -2 -2 -2 -1 -2 -2 -2 -1 0
-1 -1 -1 -1 -1 -1 -0 0 0 0 1 1 1 0 -0 -0 -1 -1 -0 -1 -1 -1 -0 -0 -1 -1 -1 -2 -2 -2 -1 -1 -2 -2 -1 -1 -2 -2 -1 -1 -1 0 0
-1 -1 -1 -1 -1 -0 0 -0 0 0 1 1 1 1 0 -0 -1 0 0 -1 0 0 -0 0 0 -0 -1 -2 -2 -2 -1 -1 -1 -1 -2 -2 -2 -1 -1 -0 0 0 1
-1 -1 -1 -1 -1 -0 -0 -1 0 1 1 1 1 1 1 0 1 0 0 -0 -0 -0 0 0 0 0 -1 -1 -1 -1 -1 -1 -2 -2 -2 -2 -2 -1 -0 0 1 1 1
-1 -1 -1 -0 -1 0 -0 -0 0 2 2 0 2 3 5 3 2 1 0 0 0 -0 0 -0 -0 0 -0 -1 -1 -1 -1 -1 -1 -1 -1 -1 -0 -0 0 1 1 1 1
-1 -1 -1 -1 -1 -0 1 0 0 0 2 1 0 3 6 6 4 2 1 0 0 0 0 -0 -0 0 -0 -1 -1 -2 -2 -1 -1 -0 -0 0 -0 0 1 1 1 1 1
-0 -1 -1 -1 -1 -0 0 0 -0 0 1 2 1 0 0 2 5 6 2 1 1 1 0 0 0 -0 -1 -1 -1 -2 -1 -1 -0 -0 -0 0 0 0 1 1 1 0 -1
-0 -0 -1 -1 -1 -1 -1 -0 -0 0 -0 1 1 2 2 2 2 4 6 4 2 1 1 0 -0 -0 -0 -1 -1 -1 -0 -1 -0 -0 -0 0 0 0 1 1 -1 -1 -1
0 -0 -0 -0 -1 -0 -0 -0 -0 -0 0 0 1 1 2 3 4 3 5 4 4 3 1 0 0 -0 -1 -1 -1 -0 0 0 1 0 -0 -0 -0 -0 -0 -1 -1 -1 -1
1 0 -0 -0 -0 -0 -0 -0 -0 0 0 1 1 1 1 1 1 2 3 4 5 5 3 0 0 -0 -1 -1 -1 -0 -0 1 1 1 0 0 -0 -2 -2 -2 -1 -1 -1
0 -0 -0 -0 -0 -0 -0 -0 -0 -0 -0 0 1 1 1 1 1 2 3 4 5 5 3 3 0 -1 -1 -1 -2 -1 0 1 1 1 1 -0 -1 -1 -2 -1 -1 -1 -1
0 -0 -0 -0 -0 -0 -0 -0 0 0 0 0 1 1 1 1 1 3 2 2 3 6 5 2 2 -1 -1 -1 -1 -1 -1 1 -0 0 0 0 0 -0 -0 -0 -0 1 1
-0 0 0 0 0 -0 -0 -0 0 0 1 1 0 1 1 2 2 2 3 3 2 3 5 2 1 0 -1 -1 -0 -1 -0 0 0 1 1 1 1 1 1 1 1 2 2
0 0 0 0 0 0 0 0 0 1 1 1 1 1 2 3 3 4 4 3 2 2 3 2 1 -0 -0 -0 1 -1 -1 0 1 1 1 1 2 2 2 2 2 2 3
0 0 0 0 0 0 0 0 1 1 1 1 1 1 2 2 3 3 4 3 1 1 2 3 1 1 0 -1 -1 -1 -1 -0 -1 1 2 2 3 3 3 3 4 4 4
0 0 0 1 1 0 0 0 1 1 1 1 1 2 1 2 2 2 2 2 0 1 1 1 2 0 0 -0 -0 -1 -1 -2 -1 1 2 3 3 3 3 3 4 4 5
0 0 0 1 1 0 0 0 0 0 1 1 1 0 0 1 1 1 1 1 -0 1 1 1 1 1 1 -0 -0 1 1 -0 -0 1 2 3 4 4 3 4 4 4 6
-0 -0 0 0 -0 -0 0 0 0 0 1 1 0 0 0 0 3 2 0 -0 -0 1 1 1 1 1 1 1 1 1 1 0 -0 -1 0 2 3 3 3 4 5 5 6
-0 -0 -0 0 0 1 8 5 1 0 0 1 1 1 1 3 5 6 4 4 -0 -0 0 1 1 2 1 1 0 1 1 2 3 -1 0 0 -1 1 2 2 5 6 7
-1 -0 -0 -0 0 0 8 6 3 -0 0 0 0 0 0 1 -0 -0 4 5 4 5 3 -1 -0 0 1 0 -0 1 1 1 2 0 -0 1 -0 0 0 2 6 7 8
-0 -0 -0 -0 -0 1 8 6 4 -0 -0 -0 -1 -1 -0 -0 0 -0 -0 -0 -0 -0 -0 -0 -1 -1 -1 -1 -1 -0 0 0 0 -0 -1 2 0 1 -0 -0 6 7 8
0 -0 -0 -0 -0 -0 7 7 4 -0 0 -0 -0 -1 -0 -0 6 6 -0 0 -0 -0 7 7 7 9 10 10 7 -0 1 2 2 1 -0 1 1 1 1 1 1 7 8
0 0 0 -0 1 -0 8 8 4 -0 0 0 -1 0 7 2 8 8 -1 -0 1 0 -0 2 1 3 7 4 9 3 2 4 3 3 -0 1 2 1 3 2 2 6 7

GFSMA_con_lsi_012.txt.gz
Lid_Strength_Index
0 -0 -0 -0 -0 -1 -0 0 0 0 0 0 -0 0 0 0 -0 -0 -0 -1 -1 -1 -2 -2 -1 -1 -1 -1 -2 -2 -2 -2 -1 -2 -2 -2 -2 -2 -2 -1 -1 -1 -1
-0 -0 -0 0 -0 -0 -0 -0 0 0 0 0 0 0 0 -0 -0 -0 -0 -1 -1 -1 -1 -2 -1 -1 -2 -2 -2 -2 -2 -1 -2 -1 -1 -2 -2 -2 -1 -1 -1 -2 -1
-0 -0 0 0 -0 -0 -0 -0 -0 -0 0 0 1 0 -0 -0 0 -0 -0 -0 -1 -1 -2 -1 -2 -2 -2 -2 -2 -2 -1 -2 -2 -1 -2 -2 -2 -2 -1 -2 -2 -1 -1
-1 -0 0 0 -0 -0 0 0 1 1 1 1 1 1 0 0 0 0 -0 -0 -0 -1 -1 -2 -1 -1 -2 -2 -2 -2 -1 -1 -1 -2 -2 -2 -1 -2 -2 -2 -1 -1 -0
-1 -0 0 0 -0 0 0 1 1 1 1 1 1 1 1 1 0 -0 -0 -0 -0 -0 -0 -1 -1 -1 -1 -2 -2 -2 -2 -1 -1 -2 -2 -1 -1 -2 -1 -1 -1 -0 0
-1 -0 0 0 -0 0 1 1 1 1 1 1 1 1 1 1 0 0 0 -0 -0 0 -0 -0 -0 -1 -1 -1 -2 -2 -2 -1 -1 -1 -2 -2 -2 -1 -1 -1 -1 0 0
-0 -0 0 0 0 1 1 1 1 1 2 1 2 2 2 1 1 1 1 1 1 0 -0 0 0 0 -0 -1 -1 -2 -1 -1 -1 -1 -1 -1 -2 -1 -1 -1 0 1 1
-0 -0 0 1 0 1 1 1 1 2 2 1 3 3 5 4 2 2 1 1 1 0 0 -0 1 0 0 0 -1 -2 -2 -2 -2 -1 -1 -1 -1 -1 -0 0 1 1 1
-0 -0 0 0 0 0 1 1 1 2 3 2 1 3 6 7 4 2 1 1 1 0 0 0 1 0 0 -0 -1 -1 -2 -2 -1 -1 -1 -0 -0 -0 0 1 1 1 1
-0 -0 -0 0 0 0 1 1 1 1 2 3 2 1 2 3 6 6 2 1 1 1 0 1 1 0 0 -0 -1 -1 -1 -1 -1 -1 -0 -0 -0 0 0 1 1 0 0
-0 -0 -0 0 0 0 0 1 1 1 1 2 2 2 2 2 2 4 6 4 2 1 1 1 1 0 -0 -0 -0 -0 -0 -1 -1 -1 -1 -0 0 0 0 1 0 -1 -1
0 -0 0 0 0 0 1 1 0 1 1 1 1 2 3 3 4 4 5 4 4 2 1 1 0 1 0 -0 -1 -0 0 0 1 0 0 -0 -0 -0 -0 -0 -1 -1 -1
1 1 0 0 0 0 0 0 1 1 1 1 1 2 1 2 2 2 3 4 4 3 2 1 0 0 -0 -0 -1 -0 0 1 1 1 1 1 0 -1 -1 -2 -2 -1 -1
1 0 0 0 0 0 0 0 1 1 1 1 1 1 1 1 1 1 3 4 5 5 3 3 0 0 0 -0 -1 0 1 1 2 2 1 1 1 -1 -2 -2 -2 -2 -2
1 0 0 0 0 0 0 0 1 1 1 1 1 1 1 1 1 1 2 2 4 6 5 3 2 0 -0 -0 -0 0 1 1 1 1 2 0 -0 -1 -1 -1 -1 -1 -1
0 1 1 1 0 0 0 1 1 1 1 1 1 1 1 1 2 2 2 2 2 3 5 2 2 0 -0 -1 -1 -0 0 1 0 1 1 1 1 1 0 0 0 0 1
1 1 1 1 1 1 1 1 1 1 1 1 1 1 2 1 2 3 2 2 2 3 4 3 2 0 1 1 0 -0 -0 0 1 0 0 1 2 2 1 1 1 1 2
0 1 1 1 1 1 1 1 1 1 1 2 1 2 2 2 3 3 2 3 3 3 2 4 3 1 1 1 2 0 1 1 1 1 1 2 2 2 3 3 3 3 3
1 0 1 1 1 1 1 1 1 1 1 1 2 2 3 3 3 3 3 3 3 1 2 2 3 2 2 2 1 0 0 0 0 0 2 2 2 3 3 3 4 4 5
1 1 1 1 1 1 1 1 1 1 1 1 1 2 2 2 2 2 3 3 1 2 2 2 2 2 2 1 1 2 2 1 1 2 2 3 3 3 3 4 4 4 5
1 1 1 1 1 1 1 1 1 1 1 1 1 1 2 2 2 2 1 1 1 2 2 2 3 3 3 3 3 2 2 2 1 0 3 4 5 5 6 4 4 4 5
1 1 1 1 1 4 8 5 1 1 1 1 1 1 2 4 4 5 4 4 2 2 2 3 3 3 3 2 2 2 2 3 4 0 2 2 5 6 6 6 5 6 7
1 1 1 1 2 3 8 7 5 1 1 2 2 2 2 2 3 3 5 4 4 5 4 1 3 3 3 2 2 2 2 3 3 2 2 3 1 2 2 3 5 7 7
1 1 1 1 1 4 7 7 4 1 1 1 1 1 1 1 1 1 1 1 1 1 1 1 1 2 3 3 1 1 2 2 1 1 1 3 1 2 1 1 4 6 7
1 1 1 1 1 2 8 8 3 1 1 1 1 1 1 1 7 7 1 2 1 2 6 7 8 8 9 10 8 2 2 3 4 3 1 2 2 3 2 2 2 6 7
1 1 1 1 2 1 8 9 6 1 2 1 1 4 7 3 8 7 1 2 2 2 3 5 5 7 9 6 9 5 5 6 6 7 5 6 7 7 8 5 7 7 7